Slayton, MN

12:38 PM CDT on October 21, 2017 (GMT -0500)
Slayton

Weather History for KDVP - May, 2013

Change the Weather History Date:

Monday, May 13, 2013

  Actual Average (KOTG) Record (KOTG)
Temperature  
Mean Temperature 62 °F -  
Max Temperature 84 °F 64 °F 89 °F (2007)
Min Temperature 41 °F 44 °F 24 °F (1997)
Degree Days  
Heating Degree Days 2    
Growing Degree Days 12 (Base 50)    
Moisture  
Dew Point 36 °F    
Average Humidity 39    
Maximum Humidity 63    
Minimum Humidity 24    
Precipitation  
Precipitation 0.00 in - - ()
Sea Level Pressure  
Sea Level Pressure 29.92 in    
Wind  
Wind Speed 11 mph (SSW)    
Max Wind Speed 31 mph    
Max Gust Speed 41 mph    
Visibility 10 miles    
Events      
Averages and records for this station are not official NWS values.
T = Trace of Precipitation, MM = Missing Value Source: NWS Daily Summary

Daily Weather History Graph

Daily Weather History Graph

Search for Another Location

Airport or City:

Trip Planner

Search our weather history database for the weather conditions in past years. The results will help you decide how hot, cold, wet, or windy it might be!

Date:

Astronomy

May. 13, 2013 Rise Set
Actual Time 5:58 AM CDT 8:40 PM CDT
Civil Twilight 5:25 AM CDT 9:13 PM CDT
Nautical Twilight 4:44 AM CDT 9:55 PM CDT
Astronomical Twilight 3:56 AM CDT 10:44 PM CDT
Moon 8:45 AM CDT (5/13) 11:50 PM CDT (5/13)
Length of Visible Light 15h 48m
Length of Day
14h 41m
Waxing Crescent, 12% of the Moon is Illuminated
May 13
Waxing Crescent
May 17
First Quarter
May 24
Full
May 31
Last Quarter
Jun 8
New

Hourly Weather History & Observations

Time (CDT) Temp. Windchill Dew Point Humidity Pressure Visibility Wind Dir Wind Speed Gust Speed Precip Events Conditions
12:12 AM 43.9 °F 41.3 °F 29.3 °F 57% 30.11 in 10.0 mi SE 4.6 mph - N/A   Clear
12:33 AM 44.8 °F 43.3 °F 27.3 °F 50% 30.11 in 10.0 mi SSE 3.5 mph - N/A   Clear
12:53 AM 45.5 °F - 27.5 °F 49% 30.11 in 10.0 mi Calm Calm - N/A   Clear
1:13 AM 45.0 °F 41.8 °F 28.4 °F 52% 30.10 in 10.0 mi ESE 5.8 mph - N/A   Clear
1:33 AM 45.0 °F 42.6 °F 28.2 °F 52% 30.10 in 10.0 mi SE 4.6 mph - N/A   Clear
1:54 AM 44.6 °F 41.4 °F 29.8 °F 56% 30.10 in 10.0 mi SSE 5.8 mph - N/A   Clear
2:13 AM 43.7 °F 40.3 °F 29.5 °F 57% 30.09 in 10.0 mi SE 5.8 mph - N/A   Clear
2:32 AM 43.3 °F 39.2 °F 28.8 °F 56% 30.09 in 10.0 mi SSE 6.9 mph - N/A   Clear
2:54 AM 42.1 °F 38.4 °F 30.0 °F 62% 30.08 in 10.0 mi SSE 5.8 mph - N/A   Clear
3:13 AM 41.2 °F 36.0 °F 29.3 °F 63% 30.09 in 10.0 mi SSE 8.1 mph - N/A   Clear
3:34 AM 41.9 °F 37.5 °F 28.4 °F 59% 30.08 in 10.0 mi SSE 6.9 mph - N/A   Clear
3:53 AM 43.0 °F 37.7 °F 27.3 °F 54% 30.07 in 10.0 mi SSE 9.2 mph - N/A   Clear
4:14 AM 42.8 °F 38.0 °F 27.3 °F 54% 30.06 in 10.0 mi SSE 8.1 mph - N/A   Clear
4:33 AM 42.6 °F 39.9 °F 27.5 °F 55% 30.07 in 10.0 mi South 4.6 mph - N/A   Clear
4:53 AM 44.4 °F 40.0 °F 26.1 °F 49% 30.06 in 10.0 mi South 8.1 mph - N/A   Scattered Clouds
5:13 AM 44.1 °F 39.5 °F 26.6 °F 50% 30.06 in 10.0 mi South 8.1 mph - N/A   Scattered Clouds
5:33 AM 44.2 °F 39.7 °F 25.3 °F 47% 30.05 in 10.0 mi South 8.1 mph - N/A   Clear
5:53 AM 45.0 °F 40.6 °F 23.9 °F 44% 30.05 in 10.0 mi South 8.1 mph - N/A   Clear
6:13 AM 44.1 °F 39.5 °F 25.0 °F 47% 30.05 in 10.0 mi South 8.1 mph - N/A   Clear
6:54 AM 48.6 °F - 24.4 °F 39% 30.04 in 10.0 mi South 8.1 mph - N/A   Clear
7:13 AM 51.8 °F - 23.9 °F 34% 30.04 in 10.0 mi South 10.4 mph - N/A   Clear
7:33 AM 52.7 °F - 22.1 °F 30% 30.02 in 10.0 mi South 17.3 mph - N/A   Clear
7:53 AM 53.2 °F - 22.3 °F 30% 30.03 in 10.0 mi South 11.5 mph - N/A   Clear
8:13 AM 54.7 °F - 24.3 °F 31% 30.02 in 10.0 mi South 12.7 mph - N/A   Scattered Clouds
8:33 AM 56.3 °F - 28.0 °F 34% 30.01 in 10.0 mi South 13.8 mph - N/A   Mostly Cloudy
8:53 AM 57.2 °F - 33.1 °F 40% 30.00 in 10.0 mi South 18.4 mph 25.3 mph N/A   Mostly Cloudy
9:13 AM 57.4 °F - 34.7 °F 43% 29.99 in 10.0 mi South 17.3 mph - N/A   Overcast
9:33 AM 59.2 °F - 36.5 °F 43% 29.98 in 10.0 mi South 19.6 mph 25.3 mph N/A   Mostly Cloudy
9:53 AM 59.9 °F - 36.9 °F 42% 29.98 in 10.0 mi South 17.3 mph 23.0 mph N/A   Mostly Cloudy
10:12 AM 59.9 °F - 37.6 °F 44% 29.98 in 10.0 mi South 16.1 mph 20.7 mph N/A   Mostly Cloudy
10:33 AM 61.9 °F - 37.8 °F 41% 29.97 in 10.0 mi South 21.9 mph 25.3 mph N/A   Scattered Clouds
10:53 AM 64.2 °F - 38.7 °F 39% 29.95 in 10.0 mi South 23.0 mph 29.9 mph N/A   Clear
11:13 AM 65.7 °F - 39.2 °F 38% 29.94 in 10.0 mi South 24.2 mph 32.2 mph N/A   Scattered Clouds
11:34 AM 67.1 °F - 39.4 °F 36% 29.93 in 10.0 mi South 21.9 mph 31.1 mph N/A   Scattered Clouds
11:53 AM 68.7 °F - 39.7 °F 35% 29.91 in 10.0 mi South 19.6 mph 29.9 mph N/A   Scattered Clouds
12:14 PM 69.8 °F - 40.3 °F 34% 29.90 in 10.0 mi South 23.0 mph 29.9 mph N/A   Scattered Clouds
12:33 PM 70.7 °F - 40.6 °F 34% 29.89 in 10.0 mi South 19.6 mph 33.4 mph N/A   Clear
12:52 PM 71.8 °F - 41.0 °F 33% 29.87 in 10.0 mi South 25.3 mph 32.2 mph N/A   Mostly Cloudy
1:13 PM 73.2 °F - 41.2 °F 31% 29.86 in 10.0 mi South 21.9 mph 32.2 mph N/A   Scattered Clouds
1:33 PM 74.5 °F - 41.2 °F 30% 29.85 in 10.0 mi South 24.2 mph 28.8 mph N/A   Clear
1:54 PM 75.2 °F - 40.8 °F 29% 29.84 in 10.0 mi South 27.6 mph 33.4 mph N/A   Clear
2:13 PM 75.7 °F - 41.5 °F 29% 29.84 in 10.0 mi SSW 27.6 mph 35.7 mph N/A   Clear
2:34 PM 76.6 °F - 41.0 °F 28% 29.83 in 10.0 mi SSW 26.5 mph 31.1 mph N/A   Clear
3:33 PM 80.4 °F - 42.8 °F 26% 29.81 in 10.0 mi SW 27.6 mph 33.4 mph N/A   Clear
3:54 PM 81.3 °F - 43.0 °F 26% 29.79 in 10.0 mi SW 31.1 mph 41.4 mph N/A   Clear
4:13 PM 82.9 °F - 42.8 °F 24% 29.78 in 10.0 mi SW 28.8 mph 35.7 mph N/A   Clear
4:33 PM 83.3 °F - 43.2 °F 24% 29.78 in 10.0 mi SW 27.6 mph 38.0 mph N/A   Clear
4:53 PM 82.8 °F - 43.7 °F 25% 29.78 in 10.0 mi SW 24.2 mph 33.4 mph N/A   Clear
5:13 PM 83.3 °F - 43.7 °F 25% 29.78 in 10.0 mi WSW 23.0 mph 27.6 mph N/A   Clear
5:33 PM 83.3 °F - 43.3 °F 24% 29.77 in 10.0 mi WSW 18.4 mph 28.8 mph N/A   Clear
5:53 PM 83.7 °F - 43.2 °F 24% 29.77 in 10.0 mi WSW 18.4 mph 25.3 mph N/A   Clear
6:33 PM 84.4 °F - 43.7 °F 24% 29.76 in 10.0 mi WSW 15.0 mph - N/A   Clear
7:14 PM 83.5 °F - 43.7 °F 25% 29.75 in 10.0 mi WSW 10.4 mph - N/A   Clear
7:34 PM 81.7 °F - 45.0 °F 27% 29.75 in 10.0 mi SW 9.2 mph - N/A   Clear
7:53 PM 79.9 °F - 45.5 °F 30% 29.75 in 10.0 mi SW 9.2 mph - N/A   Clear
8:13 PM 78.8 °F - 45.5 °F 31% 29.74 in 10.0 mi SW 10.4 mph - N/A   Clear
8:33 PM 77.4 °F - 44.8 °F 31% 29.75 in 10.0 mi WSW 10.4 mph - N/A   Clear
8:53 PM 75.7 °F - 44.8 °F 33% 29.75 in 10.0 mi WSW 12.7 mph - N/A   Clear
9:13 PM 76.1 °F - 44.2 °F 32% 29.75 in 10.0 mi WSW 10.4 mph - N/A   Clear
9:33 PM 75.4 °F - 43.7 °F 32% 29.75 in 10.0 mi WSW 12.7 mph - N/A   Clear
9:53 PM 74.3 °F - 43.9 °F 34% 29.76 in 10.0 mi WSW 10.4 mph - N/A   Clear
10:13 PM 73.0 °F - 44.4 °F 36% 29.76 in 10.0 mi WSW 11.5 mph - N/A   Clear
10:33 PM 73.0 °F - 43.9 °F 35% 29.76 in 10.0 mi WSW 11.5 mph - N/A   Clear
10:52 PM 71.6 °F - 44.1 °F 37% 29.77 in 10.0 mi WSW 10.4 mph - N/A   Clear
11:14 PM 70.7 °F - 43.5 °F 37% 29.77 in 10.0 mi West 11.5 mph - N/A   Clear
11:33 PM 68.9 °F - 44.2 °F 41% 29.77 in 10.0 mi West 8.1 mph - N/A   Clear
11:53 PM 66.4 °F - 44.4 °F 45% 29.77 in 10.0 mi West 4.6 mph - N/A   Clear